CAPE
1833 1753 2021 2174 2396 2284 2348 1893 1617 2537 2109 2627 2351 2500 2700 2356 3005 2422 2277 2340 2207 2075 1489 1344 1128 675 375 293 175 19 82 197 317 241 460 1456 1937 2728 2877 2798 2553 2352 2472 2400 2369 2364 2314 2304 2274 2173 2192 2076 2016 1971 1762 2019 1904 1813 1896 1970 1668 1562 1667 1649 1465 1499 1576 1542 1584 1770 1481 1318 1302 1454 1607 1617 1592 1598 1624 1628 1703 1670 1652 1582 1563
1775 2016 2095 2330 2369 2487 2343 2093 1713 2327 2005 2449 2986 2406 2587 2787 2469 2375 1901 1400 1722 2195 1436 978 1169 757 487 294 71 7 69 89 78 103 325 551 1284 2595 3110 2937 2602 2571 2555 2462 2418 2371 2284 2245 2252 2150 2169 2049 2116 2101 1908 2030 1934 1919 2104 1805 1889 1949 1534 1337 1605 1552 1684 1749 1774 1875 1675 1686 1360 1729 1707 1286 1250 1236 1271 1452 1567 1647 1674 1576 1539
1938 2031 2130 2447 2491 2541 2397 2088 1580 2358 2129 2689 2762 1773 2414 2881 2273 2014 1945 2035 2137 1916 2287 1576 1001 514 608 352 88 25 0 7 20 61 103 261 1481 2616 3131 2901 2571 2568 2511 2576 2489 2329 2296 2294 2252 2120 2083 2027 2150 2118 2044 1836 1899 1921 1887 1953 1952 1939 1906 1807 1832 1501 1605 1829 1675 1788 1783 1711 1833 1802 1656 1418 1420 1184 1484 1289 1255 1246 1544 1531 1578
2914 2365 2506 2430 2519 2509 2282 2156 1861 1853 2418 2113 2454 2434 2357 3061 3146 2398 2322 2577 1933 2071 1812 1735 967 405 568 305 123 4 7 12 28 8 6 83 1352 1635 2816 2857 2787 2631 2515 2583 2588 2404 2396 2329 2114 2193 2067 1956 2218 2249 2150 2076 1970 2045 1881 1948 2004 1937 1982 1742 1734 1959 1772 1848 1821 1833 1856 1716 1845 2008 1921 1664 1566 1551 1547 1726 1646 1509 1508 1554 1604
2866 2641 2104 2524 2604 2895 2100 2150 2132 1620 2306 2983 3094 2764 2652 2808 3263 3104 2379 2156 1836 2236 2480 1412 1254 347 559 482 155 50 0 3 3 5 12 62 427 1129 1299 2084 2523 2826 2638 2633 2657 2383 2419 2222 2133 2179 2160 2210 2253 2066 2188 2214 2123 1812 1677 1889 1755 1878 2078 1968 2004 2085 2124 1957 1942 1833 1849 1877 1851 1800 1853 1708 1649 1625 1600 1636 1573 1762 1625 1543 1476
3274 2310 2079 2348 2610 2867 2596 2216 2258 2704 2711 2992 2666 2164 1958 2599 2552 2537 2207 1922 1930 2027 2502 1756 1375 933 700 550 346 0 7 7 2 7 0 25 282 468 1278 1627 2039 2123 2835 2653 2507 2494 2289 2199 2169 2264 2204 2115 2092 2042 2148 2024 2021 1982 1873 1928 1988 2089 2068 2016 1928 1947 2026 2083 2024 2070 1925 1858 1763 1786 1850 1857 1931 1873 1782 1919 1869 1640 1422 1544 1664
2572 3014 2024 2326 2523 2731 2693 2637 2538 2577 2937 3113 2522 2350 2115 1968 2541 2141 2515 2066 1593 1980 2112 2161 1131 774 762 578 399 35 1 0 0 10 21 72 124 569 821 1227 1356 2034 1979 2270 2587 2542 2480 2270 2249 2151 2236 2134 2171 2159 2078 2015 1920 1881 1855 1731 2100 2015 2043 1998 2084 2010 2043 1792 1928 1492 1827 1869 1827 1847 1796 1759 1693 1754 1722 1883 1912 1693 1762 1575 1922
2781 2723 2532 2203 2389 2460 2785 2778 3673 3026 2975 3258 3097 2462 2521 2600 2036 2067 2410 2226 1962 2079 2032 2013 1239 893 809 598 296 130 31 1 1 17 30 65 294 512 858 1483 1649 1898 2184 1836 2156 2668 2607 2416 2366 2346 2206 2271 2234 2134 2194 2126 2022 1837 1861 1969 1868 1914 2014 2003 1952 1767 1939 1790 1805 1846 1732 1594 1551 1452 1547 1573 1564 1608 1650 1653 1780 1819 1781 1752 1961
2735 2690 2473 2131 2250 2467 2930 3163 3521 2621 3536 3749 2771 2132 2533 2104 3290 2564 2029 2664 2308 1967 2254 2072 1655 555 899 479 154 48 27 7 8 48 10 253 161 395 532 612 1092 1447 2309 2202 1944 1922 2570 2363 2691 2488 2338 2251 2294 2147 2140 1906 1950 1817 1755 1927 1891 1646 1554 1555 1569 1639 1553 1640 1590 1601 1720 1462 1379 1337 1289 1434 1253 1255 1343 1300 1511 1814 1819 1762 1794
2781 2583 2627 1996 2123 2412 2547 2336 2787 3343 3705 3252 2818 2152 2238 2359 2815 3069 2535 2855 2337 2243 2279 1101 592 712 728 486 305 225 12 14 3 45 80 195 336 324 391 424 802 416 373 1697 1943 2031 1955 2542 2674 2758 2554 2466 2359 2291 2232 2051 2019 1772 1752 1780 1684 1763 1607 1469 1444 1378 1427 1528 1418 1420 1303 1176 1193 1141 1128 1100 1181 1100 1064 1344 1649 1728 1710 1714 1678
2638 2549 2779 2188 1893 2176 2589 2692 2778 3664 3915 3128 2609 2594 2520 2621 2942 3138 3332 2785 2656 2661 2633 1430 1127 647 494 375 315 353 32 38 32 62 66 153 235 279 194 286 165 119 313 578 1470 1812 1920 2328 2050 2175 2285 2581 2547 2440 2264 2337 2160 2079 1976 1846 1775 1334 1413 1418 1403 1301 1313 1217 1152 1093 934 984 1048 1240 1168 1082 1034 1070 1201 1129 1335 1612 1533 1500 1612
2455 2588 2535 2288 1916 2098 2517 3678 3373 3245 3649 2703 2427 2364 3195 3443 3532 3104 4084 3267 2935 2707 2190 1176 557 578 620 310 395 423 166 306 19 62 105 246 187 138 86 88 168 219 144 220 193 754 1420 2120 1944 1869 2640 2509 2590 2447 2309 2373 2298 2151 2133 2101 1861 1716 1445 1392 1316 1235 1271 1316 1323 1103 1027 1046 998 933 977 996 1010 1239 1372 1401 1404 1522 1612 1480 1496
2488 2537 2460 2521 2180 2601 3372 3850 3321 3005 3698 3663 3260 3348 3905 3636 3245 3666 3211 3363 2664 2686 2080 827 844 746 622 422 396 206 158 0 36 3 25 77 47 180 101 80 88 4 0 53 141 288 458 662 1676 1905 2174 2601 2425 2318 2069 2202 2001 1960 2042 2056 2032 1932 1678 1586 1504 1262 1220 1129 1119 1071 1089 939 907 969 999 982 1196 1290 1280 1360 1418 1375 1369 1451 1470
2516 2530 2698 2575 2578 3114 3902 4559 4318 3442 3773 4021 4108 3934 4244 3995 3212 3649 3276 2829 2602 2060 970 1011 722 462 323 35 85 92 174 44 0 12 20 14 36 139 72 51 48 51 30 36 24 50 87 171 299 640 1849 2271 2089 1724 2321 2404 2331 2095 2077 1926 2025 1924 1719 1445 1724 1633 1522 1265 1188 1133 1135 1046 1054 966 1068 958 979 1187 1222 1242 1193 1229 1373 1405 1422
2370 2478 2553 2707 3907 3545 3912 4239 4424 3433 3982 4340 4344 4419 4700 4547 3858 3045 2552 2902 2025 1514 1557 1118 415 57 683 237 31 64 0 0 0 3 4 5 8 16 40 65 25 4 46 10 0 0 57 292 536 830 525 561 912 1574 1602 1793 2371 2172 2062 2100 1932 1714 1890 1873 1742 1724 1751 1608 1256 1217 1195 1023 1042 1169 1136 1230 1285 1214 908 950 911 1048 1253 1249 1210
2562 2426 2499 2965 3852 4281 3945 3323 4156 4231 4230 4614 4647 4342 4394 4351 3674 2688 2129 2404 1744 1811 1348 1078 625 12 6 47 20 12 38 27 10 36 13 9 1 5 1 90 54 26 10 2 1 31 214 456 948 879 768 611 342 677 1058 954 1029 869 1306 1611 1815 2018 1832 2070 1904 1836 1795 1713 1542 1447 1307 1247 1262 1267 1206 1185 1255 1308 1385 1368 1362 1110 1207 973 1121
2297 2282 2206 2996 4051 4244 3725 3865 4094 4691 4605 4514 4739 3778 3085 3204 3440 3041 2569 2249 1813 1590 1270 897 418 673 194 6 0 21 102 30 0 28 6 5 1 6 10 59 44 77 80 1 0 26 85 296 578 758 852 607 275 352 656 1025 505 23 202 975 1365 1783 1556 1467 1600 1346 965 821 1198 1168 1219 1150 1031 993 891 712 645 705 1005 1040 896 794 661 611 559
1971 2400 2393 2830 4259 4174 3605 3971 4014 4391 4617 3699 3630 3616 3786 3506 3266 2788 2428 2328 1834 1465 1371 685 566 594 677 245 1149 603 151 0 12 0 32 17 0 5 10 13 63 12 160 10 0 0 8 117 286 305 329 286 283 289 33 13 145 98 0 274 835 1277 1288 864 400 64 56 348 459 488 334 340 130 131 18 145 87 59 290 202 274 83 265 218 158
1816 2248 2516 2788 4582 4230 3844 3930 3606 3660 4622 4504 4270 3702 2941 3140 3197 2739 2336 2152 2105 1604 981 490 327 406 113 179 448 391 105 0 54 18 22 72 5 0 8 38 76 54 115 24 0 6 9 62 100 174 218 207 64 75 106 129 255 107 0 29 80 298 862 990 40 35 46 54 197 257 225 88 63 0 88 125 80 18 3 82 4 98 59 107 154
1932 2206 2779 2996 3948 4809 4020 3724 3558 3222 3702 4297 4073 3465 3003 3075 2973 2601 2365 2567 2177 1692 340 293 365 509 76 49 41 100 101 320 166 41 57 1 32 22 8 31 62 123 74 21 14 1 38 94 33 85 198 121 152 119 72 3 0 0 0 313 0 0 182 416 736 467 50 74 84 167 266 263 212 118 56 143 0 8 6 7 17 15 20 54 103
2497 2117 2716 3136 3327 3716 4102 4282 3710 3653 3632 4046 3825 3307 3544 3340 2918 2786 2823 2774 2410 1772 977 1105 396 457 285 151 160 3 76 101 244 366 554 41 10 3 52 28 45 67 35 23 26 118 127 7 127 107 188 196 142 120 157 242 248 105 6 395 0 55 0 0 30 94 342 199 25 0 0 25 54 115 74 103 57 115 173 171 173 217 230 291 297
3129 2524 2788 3248 3257 3335 3461 3629 3796 3398 3688 3436 3076 3186 3325 3267 3063 2782 2536 2344 2315 1650 1093 812 597 552 310 165 473 355 197 16 90 142 139 224 251 57 17 63 131 91 151 60 47 90 36 27 83 12 27 92 169 78 161 156 310 236 0 515 226 441 93 33 4 0 0 0 37 0 1 0 0 2 17 4 28 34 25 54 92 124 158 181 172
2699 2754 2724 3051 3277 3214 3028 3062 3295 3636 3413 2876 2838 2792 2937 2974 2802 2703 2692 2544 2164 1663 876 874 855 600 610 411 476 502 573 173 375 73 84 87 116 112 48 33 78 65 127 132 45 31 25 102 21 2 314 29 82 143 145 164 91 904 310 464 930 823 944 742 583 12 0 39 0 0 0 0 0 3 39 39 23 26 32 22 22 20 14 17 33
2663 2304 2650 2494 3076 3293 3060 2730 3023 3310 3425 3186 2868 2934 2503 2591 2748 2755 2956 2658 2223 1857 1086 1113 1040 412 742 335 381 315 433 369 46 207 261 386 199 102 149 317 170 106 192 445 165 107 47 29 6 0 25 11 50 138 129 141 392 689 296 885 1238 1258 1127 1046 884 471 384 290 329 25 0 0 0 0 0 24 109 118 28 8 2 0 1 35 87
2614 2316 2154 2549 2650 3378 3379 3032 3028 3373 3532 3089 2862 2842 2612 2561 2706 2608 2564 2633 2116 1544 1220 1423 1094 405 256 446 175 356 519 134 234 215 67 158 468 524 102 147 165 80 167 152 186 45 8 2 19 0 6 15 29 108 102 104 245 900 708 1874 895 951 1437 1260 1165 1178 988 970 941 823 294 368 224 288 185 83 8 3 7 25 115 102 91 117 299
2748 2700 1941 2092 2313 2994 3606 3372 3250 3444 3723 3434 3068 2942 3014 2885 2736 2853 2494 2578 2288 1794 1192 1529 1365 764 99 257 670 168 421 388 11 94 307 204 224 177 220 285 17 14 212 218 133 61 33 24 15 371 17 3 5 255 254 39 134 499 266 504 673 892 962 1216 1570 1238 1333 1008 1092 848 820 606 509 414 524 550 560 619 691 816 862 1010 1010 970 896
2937 2778 2825 2270 2342 2656 3440 3641 3444 3500 3770 3858 3641 3500 3534 3444 3033 2905 2648 2274 2161 1482 1322 1623 1415 727 480 354 598 498 397 699 202 0 46 215 59 69 213 457 18 0 223 230 216 21 0 1 0 0 3 80 45 125 174 109 15 664 716 952 216 617 1014 739 1246 1151 1018 921 872 840 773 787 589 654 750 839 774 741 849 953 961 928 973 906 908
3142 2900 2986 2628 2612 2810 3175 3678 3606 3467 3697 3964 3972 3486 3691 3494 3554 3220 3157 2464 2248 1799 1562 1597 1428 977 599 478 847 704 494 441 516 410 27 278 400 411 355 467 616 208 18 195 99 84 0 15 14 22 90 152 167 84 52 36 91 1193 1771 84 304 1208 532 733 792 959 828 639 719 716 726 562 536 598 627 769 878 856 884 934 1001 1054 1110 1114 1110
2864 3044 3014 3292 3083 2872 3041 3326 3495 3263 3255 3592 3557 3150 3428 3377 3456 3462 3279 2505 2441 2135 1139 1520 1519 793 530 563 776 817 719 572 521 434 528 349 477 558 610 413 422 640 463 272 264 180 165 0 35 78 86 249 514 178 165 156 318 950 381 143 54 166 843 508 597 743 684 482 379 348 502 523 589 530 622 723 803 792 796 759 826 845 859 913 900
2588 2705 3019 3284 3426 3605 3430 3359 3264 3241 3131 3123 3393 3159 3312 3478 3237 3460 3223 2982 2400 2082 1377 1580 1401 824 595 646 844 552 567 721 680 560 691 726 530 553 521 468 670 496 591 586 482 195 190 44 0 297 645 561 377 328 275 346 1032 682 132 194 195 332 1100 513 677 415 376 368 185 143 124 323 342 438 586 672 667 568 449 452 570 643 708 822 926
2991 2857 3098 3230 3716 3776 3730 3625 3367 3278 3261 3094 3316 3202 3192 3316 3336 3130 2955 3013 2676 1891 1553 1644 1553 955 911 780 859 795 634 825 861 537 586 872 763 576 619 537 478 516 747 591 353 453 69 208 2 272 383 541 340 315 345 344 1046 438 84 119 360 1707 911 797 218 150 153 118 94 18 41 65 82 113 191 184 435 324 306 430 568 581 752 908 964
3313 3144 3128 3351 3564 3589 3892 3590 2930 2966 3291 2975 3094 3347 3256 3170 3014 2822 2590 2848 2416 2113 1711 1654 1490 1085 968 984 1119 1054 1067 901 901 757 521 902 880 736 602 580 616 526 608 676 499 527 270 40 100 111 196 758 428 197 362 414 1085 32 29 243 1758 306 527 907 0 27 5 20 5 6 4 4 2 3 16 106 169 116 394 480 526 674 635 477 449
3353 3339 3321 3407 3460 3627 3539 3760 2970 2827 3396 3333 3056 3403 3550 3348 3130 2970 2462 2750 2531 2047 2030 1929 1731 1228 1069 1075 1389 1504 1346 1393 1332 1062 692 787 1053 893 745 658 524 636 693 685 613 431 523 302 132 154 193 208 693 399 331 301 789 413 89 113 1044 802 495 128 411 0 0 0 1 2 1 1 0 0 1 7 9 42 286 458 536 411 204 228 385
3477 3430 3595 3514 3530 3533 3593 3842 3550 3043 3497 3607 3162 3323 3514 3631 3193 2995 2815 2725 2581 2371 2152 2231 2202 1589 1364 1277 1386 1580 1739 1529 1318 1298 805 843 1009 676 846 574 648 811 704 718 543 497 418 412 464 262 184 256 235 605 538 321 293 657 649 125 42 328 519 324 36 184 0 0 1 0 0 0 0 0 0 0 6 166 319 420 457 144 51 182 128
3637 3540 3550 3670 3830 3721 3720 3800 3990 3471 3600 3630 3536 3618 3720 3762 3472 3150 2955 3010 2860 2616 2343 2328 2301 2011 1505 1607 1462 1550 1558 1518 1511 1381 1152 860 941 702 591 733 878 797 792 679 690 492 296 449 692 854 584 418 298 375 458 509 544 447 549 598 440 387 504 488 274 152 0 0 0 0 0 0 0 0 0 0 0 3 11 54 39 3 0 3 0
3256 3727 3546 3679 4050 4130 3732 3705 3894 3908 3661 3780 4006 3721 3795 3848 3786 3643 3322 3242 3149 2965 2635 2468 2443 2406 1872 1797 1691 1329 1347 1534 1497 1501 1414 1029 1011 1049 802 800 929 821 815 977 701 728 680 595 732 583 509 440 526 480 460 461 468 434 425 534 489 466 486 666 738 593 185 6 3 0 0 0 0 0 0 0 0 0 0 0 0 0 0 0 0
2599 3460 3772 3784 4150 4247 3992 3774 3850 4072 4016 4067 4185 3874 3701 3806 3955 3865 3732 3621 3502 3162 2892 2723 2585 2601 2238 1920 1868 1432 1287 1479 1573 1471 1410 1372 1212 1137 1086 978 991 920 734 883 1144 900 705 573 615 743 774 613 533 524 544 538 498 556 566 536 476 425 516 379 241 120 1031 0 0 0 0 0 0 0 0 0 0 0 0 0 0 0 0 0 0
2861 2604 3609 3814 3843 4203 4344 4142 3932 4101 4287 4208 4403 4242 3627 3643 3897 3933 3853 3696 3586 3536 3311 2991 2988 2824 2472 2178 2010 1619 1304 1395 1544 1583 1602 1454 1404 1272 1145 1058 944 1016 998 768 918 1294 1116 828 674 647 755 694 710 702 673 629 545 389 376 555 672 552 538 533 290 100 483 358 542 403 84 16 56 50 8 0 0 0 0 0 0 0 0 0 0
3164 2544 2876 3858 3872 4192 4485 4444 4224 4280 4309 4354 4567 4524 3947 3598 3760 3988 3860 3809 3655 3783 3701 3329 3147 2846 2554 2454 2241 1903 1498 1401 1469 1715 1781 1570 1492 1449 1462 1367 1138 1122 1133 927 842 899 1139 1104 818 678 552 688 688 746 804 766 747 674 552 394 746 1174 1309 1177 1042 620 140 10 42 27 130 244 251 393 207 0 0 0 0 0 0 0 0 0 0
3392 3023 2405 3259 3929 4007 4425 4682 4530 4418 4468 4493 4576 4636 4368 3609 3455 3877 3999 3772 3669 3871 4029 3710 3257 2862 2685 2499 2342 2100 1749 1463 1459 1706 1953 1704 1675 1710 1570 1510 1364 1233 1199 1181 910 837 1082 1047 975 800 597 985 822 330 528 650 868 931 717 541 485 375 617 1470 1664 1459 795 390 408 52 151 132 38 158 55 75 65 46 60 74 0 0 0 0 0
3472 3208 2707 2398 3649 4078 4209 4777 4855 4431 4336 4586 4601 4660 4622 4032 3534 3697 4124 3967 3498 3568 3958 3681 3408 3076 2847 2626 2433 2276 2244 1788 1396 1643 1639 1560 1716 1797 1835 1695 1571 1419 1286 1223 1130 1130 1186 1114 1061 1000 860 1037 770 818 616 666 834 1098 1117 702 477 358 298 227 512 738 1081 846 588 64 128 251 414 680 280 262 217 39 232 263 46 52 24 147 0
3688 3554 3422 2888 2778 3800 4175 4630 4821 4658 4449 4444 4278 4061 4257 4555 3985 3613 3805 3978 3705 3436 3793 3812 3573 3286 2993 2804 2632 2161 1822 1623 1412 1396 1411 1324 1442 1656 2002 1970 1755 1662 1494 1375 1315 1227 1260 1260 921 748 626 528 447 676 412 530 575 666 418 661 1141 697 355 281 552 420 187 241 614 456 375 499 410 514 745 633 169 692 380 308 422 122 120 42 0
3928 4420 3882 3290 2853 3160 4004 4392 4738 4860 4782 4537 4162 3935 4053 4161 4416 4162 3895 4072 4044 3772 3694 3937 3784 3434 3253 3020 2921 2590 2058 1769 1568 1428 1405 1254 1222 1426 1729 1833 1756 1841 1612 1540 1399 1268 1216 1078 1068 1100 795 940 664 451 610 474 192 148 490 659 1080 654 374 212 166 189 180 453 886 792 472 257 215 339 334 170 18 26 0 34 0 0 0 0 0
4497 3908 3801 3757 3828 3172 3594 4156 4476 4728 4806 4283 4146 3965 3918 3988 4082 4332 4141 3868 3985 4077 3778 3697 3929 3850 3655 3330 3062 3037 2832 2628 2324 1868 1486 1342 1202 1292 1465 1572 1487 1540 1558 1791 1664 1324 1217 1119 1213 1214 836 737 978 980 408 273 735 721 492 586 742 336 250 182 141 94 784 716 764 637 314 349 228 71 56 18 9 8 5 14 0 0 0 0 0
3952 4307 4540 4090 4035 3727 3618 4236 4301 4535 4731 4191 3918 3885 3798 3779 3760 3783 4109 4022 3786 4084 4071 3887 3850 4021 3746 3500 3430 3205 3128 2368 2303 2445 2377 1807 1262 1176 1368 1390 1383 1520 1427 1266 1374 1530 1384 1634 1389 1396 907 876 988 1028 861 818 566 724 577 418 351 254 290 252 184 42 184 793 394 297 135 91 3 0 0 0 6 2 0 0 0 0 0 0 0
4243 4384 4190 4362 4335 4526 4166 4196 4491 4523 4716 4168 3948 3709 3616 3546 3517 3426 3787 3944 3915 3935 4184 4046 3817 3988 4003 3724 3584 3512 3374 3268 2737 2587 2653 2377 1992 1428 1490 1655 1830 1863 1435 1247 1040 1005 1191 1626 1716 1471 1427 1172 1335 1059 1032 527 439 655 435 348 323 199 267 291 223 329 308 174 151 34 14 0 0 0 0 0 0 0 2 111 0 0 0 0 0
4245 4445 4434 4409 4383 4474 4224 3921 4040 4339 4495 4121 4080 3774 3436 3322 3237 3101 3661 3623 3888 3990 4030 4213 4087 3856 3911 3893 3793 3648 3584 3585 2672 2638 2782 2597 2334 1895 1763 1668 1508 1483 1650 1454 1167 929 1029 1080 1087 1565 1527 1188 1083 729 677 773 628 665 452 354 257 197 216 237 220 211 244 192 53 20 3 0 0 0 0 0 0 0 15 24 0 0 0 0 0
4284 4310 4575 4408 4358 4330 4405 4267 3844 3964 4200 3837 3937 3882 3573 3207 3076 2965 3444 3676 3639 3871 4113 4160 4246 4148 3950 3942 3950 3719 3674 3799 2909 2256 2462 2718 2486 2143 1820 1615 1502 1384 1345 1153 1124 1160 1210 1236 1223 1209 1237 1098 808 1515 1128 534 726 495 162 333 279 321 266 94 29 0 114 57 120 16 0 0 0 0 0 0 0 0 0 2 0 0 0 0 0
4305 4376 4512 4538 4641 4434 4408 4502 4364 4083 4071 4105 3699 3749 3683 3400 3033 2840 3262 3522 3609 3696 3965 4143 4178 4222 4000 4040 4071 3838 3672 3833 3443 2480 2070 2352 2678 2394 2067 1788 1584 1433 1221 1215 1252 1330 1355 1360 1327 1249 1157 1023 812 664 468 389 1091 239 152 120 122 52 67 63 62 42 1 0 20 0 0 0 0 0 0 0 0 0 0 0 0 0 0 0 0
4214 4383 4446 4570 4641 4496 4383 4352 4324 4380 4077 4707 3671 3646 3572 3466 3206 2906 3294 3503 3593 3653 3695 3950 3934 3768 3863 3465 3805 3953 3595 3578 3365 3006 2232 2157 2896 2703 2411 2124 1865 1653 1538 1371 1304 1388 1327 1288 1252 1195 1125 1050 947 689 450 454 342 266 306 143 52 4 17 114 42 1 0 0 0 0 0 0 0 0 0 0 0 0 0 0 0 0 0 0 0
4303 4421 4273 4386 4631 4564 4390 4497 3980 3866 4262 4181 3923 3656 3519 3417 3275 3131 3382 3485 3527 3612 3635 3708 3843 3847 3789 3330 3145 3277 3544 3390 3259 3016 2780 2408 2927 2963 2663 2336 2045 1882 1712 1561 1362 1208 1117 1120 1223 1212 1159 1009 844 526 427 332 277 284 112 77 1 0 0 0 0 0 0 0 0 0 0 0 0 0 0 0 0 0 0 0 0 0 0 0 0
Wind_Speed
11 11 11 10 9 9 10 6 7 7 4 4 4 6 6 7 8 7 6 6 8 8 8 10 12 11 10 11 10 nan nan 8 9 9 9 11 11 14 16 16 15 15 15 14 13 13 13 13 15 15 15 15 14 14 14 12 13 13 12 10 13 14 16 14 13 13 14 13 12 12 14 13 13 13 12 11 11 11 10 10 9 9 9 8 7
9 10 9 9 9 9 9 7 6 9 3 7 5 6 7 7 6 7 5 5 6 6 8 8 13 10 10 10 nan nan nan nan nan 10 9 12 12 14 20 17 16 15 15 14 14 13 12 13 13 14 15 15 13 13 13 13 12 12 11 11 11 12 12 12 12 11 12 14 12 13 13 12 11 12 12 11 11 11 11 10 10 10 9 8 6
8 9 8 7 8 8 9 5 7 7 4 6 7 8 7 7 7 5 3 4 10 6 6 6 10 10 9 9 nan nan nan nan nan nan 15 11 14 15 17 20 17 16 16 16 15 14 14 13 12 12 13 14 13 12 12 12 13 13 12 11 11 11 12 11 8 10 11 12 11 12 12 13 12 11 11 10 10 10 10 9 10 10 9 8 6
8 8 8 7 7 7 6 6 6 6 2 6 5 5 7 1 2 3 3 7 3 3 3 6 10 8 9 8 9 nan nan nan nan nan nan nan 15 13 15 17 19 19 19 17 16 14 14 14 13 12 13 13 13 12 13 12 13 12 11 12 11 11 11 12 11 11 11 13 13 13 13 13 13 12 11 11 11 11 9 9 9 9 10 9 6
7 8 9 7 7 6 7 5 4 6 8 7 5 5 4 5 2 2 5 4 3 2 4 5 7 6 6 7 10 nan nan nan nan nan nan nan 15 13 13 14 17 18 18 18 18 16 15 15 15 14 14 14 13 13 13 14 13 13 12 10 10 11 11 12 14 15 14 14 13 13 13 13 13 13 13 11 10 11 11 9 7 9 10 7 8
6 7 9 7 7 6 8 4 6 6 3 5 4 7 7 6 5 2 3 2 1 4 3 4 6 5 5 4 6 nan nan nan nan nan nan nan 9 12 13 13 13 13 15 18 19 20 18 16 15 15 15 15 14 13 14 14 13 14 14 11 12 12 12 14 14 14 13 11 11 10 11 11 11 11 11 11 11 10 9 8 9 9 8 8 10
6 7 8 8 7 7 6 5 5 4 6 6 6 5 4 4 7 5 2 2 3 1 3 4 3 3 4 4 4 nan nan nan nan nan nan nan 10 10 10 13 12 12 13 13 16 19 19 18 18 16 16 16 16 15 14 14 13 14 13 13 12 14 16 16 12 10 9 9 9 10 11 13 13 12 11 11 12 12 11 8 5 9 9 9 8
6 6 7 8 7 5 4 4 4 6 6 5 6 5 3 4 6 3 3 2 1 3 3 2 3 4 6 6 8 7 nan nan nan nan nan nan 12 11 11 13 15 15 14 13 13 15 18 19 18 18 18 17 16 14 14 13 12 13 13 13 14 15 15 12 7 5 7 9 9 10 11 10 11 11 12 12 11 11 11 9 7 5 5 6 7
6 6 7 7 7 6 6 5 7 8 6 7 6 5 3 2 3 2 2 3 3 2 2 2 3 4 6 7 8 nan nan nan nan nan nan 7 11 13 11 11 13 15 16 13 13 13 15 17 19 20 20 18 17 15 15 15 14 14 15 14 15 14 10 6 4 4 6 8 6 9 10 11 11 12 12 13 13 12 11 9 8 7 5 4 3
5 5 6 7 7 7 7 6 9 8 8 7 6 4 3 2 2 2 2 2 4 3 4 4 3 3 5 5 4 5 nan nan nan nan nan 8 9 10 11 12 12 12 13 15 13 14 14 16 16 16 18 18 18 17 16 16 15 15 14 14 14 13 10 10 10 9 9 9 10 10 11 12 12 11 11 11 11 11 10 10 8 8 6 5 4
5 6 6 8 8 8 8 11 9 7 7 8 8 7 5 3 3 3 4 5 3 4 3 4 6 6 7 7 7 4 nan nan nan nan nan 9 11 12 12 9 11 13 11 15 16 14 13 13 13 13 13 16 17 15 17 16 16 16 17 16 17 12 11 10 10 11 11 11 10 11 12 12 10 11 13 12 12 12 11 10 9 8 7 7 7
5 6 7 8 8 8 8 7 8 8 8 10 7 7 7 6 7 6 6 6 7 5 6 6 6 4 3 6 7 5 3 3 nan nan 10 11 9 6 nan nan 7 8 12 11 13 17 17 16 11 10 11 14 15 15 15 14 14 15 16 17 18 19 15 11 10 11 12 12 10 9 10 10 10 11 11 11 10 10 10 9 9 9 8 8 9
5 6 7 8 8 7 6 7 7 8 7 8 9 8 5 6 6 6 8 6 6 7 6 7 5 7 7 7 10 5 10 nan nan nan nan nan nan 9 9 nan nan nan nan nan 11 13 15 16 17 13 11 12 13 15 15 14 14 15 16 18 18 16 15 13 12 12 12 11 11 11 10 10 11 11 11 13 12 11 12 11 10 9 9 8 8
4 6 6 7 7 6 5 5 5 6 6 7 7 7 7 7 6 7 6 7 6 8 7 8 7 9 9 nan nan nan 4 nan nan nan nan nan nan 9 nan nan nan nan nan nan nan nan nan 13 12 15 16 14 12 12 12 13 14 15 17 17 17 17 16 13 12 13 14 14 13 13 12 12 12 12 12 12 13 13 13 14 13 13 13 11 10
4 5 5 6 6 5 5 5 6 6 6 7 7 7 7 6 7 7 5 7 7 6 6 9 6 nan 4 6 nan nan nan nan nan nan nan nan nan nan nan nan nan nan nan nan nan nan nan 10 10 11 10 13 14 14 13 11 14 16 15 14 15 17 18 18 16 16 16 15 14 15 16 16 15 16 16 16 16 15 15 15 15 15 15 15 14
4 5 4 5 5 5 4 4 5 6 6 6 5 6 6 6 6 7 6 6 8 7 7 7 8 nan nan nan nan nan nan nan nan nan nan nan nan nan nan nan nan nan nan nan nan nan 10 10 10 9 10 8 10 11 12 12 15 15 16 15 12 11 17 18 17 18 19 19 18 17 17 18 19 18 19 20 20 19 19 19 19 18 17 17 18
3 4 4 5 5 4 4 4 4 6 6 6 5 4 5 6 6 7 7 5 4 7 6 8 7 6 6 nan nan nan 8 nan nan nan nan nan nan nan nan nan nan nan nan nan nan nan nan 11 10 10 10 10 9 10 12 15 15 nan 14 15 12 10 15 17 18 18 19 19 19 19 19 19 19 20 20 21 21 22 22 21 22 21 21 20 19
2 3 5 5 6 5 5 4 5 5 6 6 5 4 5 5 7 7 7 6 4 4 8 6 6 8 5 4 2 4 2 nan nan nan nan nan nan nan nan nan nan nan 4 nan nan nan nan 13 12 12 10 9 10 10 nan nan 12 nan nan 13 14 12 10 14 16 nan nan 18 19 20 19 19 20 21 nan 21 nan nan 23 22 21 nan 22 22 22
2 4 5 7 6 6 6 5 5 5 6 6 5 5 5 6 6 7 5 5 5 6 6 9 9 8 8 8 12 9 5 nan nan nan nan nan nan nan nan nan nan nan 7 nan nan nan nan nan nan 14 12 13 nan nan 12 11 11 11 nan nan nan 13 12 11 nan nan nan nan 17 18 18 nan nan nan nan 21 nan nan nan nan nan nan nan 22 22
2 4 6 7 7 7 7 6 5 5 5 6 6 5 4 5 7 7 6 5 7 7 10 12 12 10 nan nan nan 7 7 5 8 nan nan nan nan nan nan nan nan 8 nan nan nan nan nan nan nan nan 14 13 13 12 nan nan nan nan nan 13 nan nan 13 12 12 13 nan nan nan 17 18 18 19 18 nan 19 nan nan nan nan nan nan nan nan 22
2 4 6 7 7 8 8 7 6 5 5 6 5 5 5 6 8 8 8 8 9 10 10 9 11 12 12 11 11 nan nan 12 6 6 8 nan nan nan nan nan nan nan nan nan nan 20 18 nan 16 14 16 14 12 12 13 13 14 14 nan 17 nan nan nan nan nan nan 15 16 nan nan nan nan nan 18 nan 19 nan 20 21 22 22 23 23 23 23
3 3 5 7 8 9 8 9 7 6 5 5 5 4 5 6 8 9 9 10 12 12 12 11 9 7 12 11 11 12 12 nan nan 11 11 5 7 nan nan nan 8 nan 11 nan nan nan nan nan nan nan nan nan 17 nan 15 16 16 16 nan 21 19 18 nan nan nan nan nan nan nan nan nan nan nan nan nan nan nan nan nan nan nan 22 22 22 23
3 3 4 6 7 8 8 8 7 5 5 4 4 5 5 6 7 9 10 12 13 13 13 12 10 9 10 11 11 12 12 13 12 nan nan nan 10 9 nan nan nan nan 10 12 nan nan nan 19 nan nan 20 nan nan 17 17 16 nan 19 25 23 21 20 20 21 20 nan nan nan nan nan nan nan nan nan nan nan nan nan nan nan nan nan nan nan nan
4 4 4 6 6 7 8 8 7 5 5 5 4 4 4 6 7 9 10 12 13 12 11 11 12 11 11 13 13 13 13 12 nan 10 9 11 12 12 8 6 5 13 12 11 11 12 nan nan nan nan nan nan nan 16 16 17 20 29 25 24 23 22 23 23 23 23 22 22 22 nan nan nan nan nan nan nan 21 21 nan nan nan nan nan nan nan
5 3 5 6 6 6 7 8 8 7 5 5 5 4 4 4 7 9 11 13 13 12 10 10 11 11 12 13 14 14 14 14 12 13 nan 12 10 10 12 12 13 nan 15 16 13 nan nan nan nan nan nan nan nan 15 15 17 18 24 22 24 25 24 24 24 24 24 25 24 25 24 23 23 23 24 23 nan nan nan nan nan 23 24 nan 25 26
5 4 3 6 5 7 7 8 9 10 9 7 6 6 5 4 6 8 11 12 13 13 9 9 10 11 nan 12 14 14 14 16 nan nan 14 14 14 14 12 11 nan nan 16 14 13 nan nan nan nan 18 nan nan nan 16 14 nan 15 27 24 20 25 25 24 24 25 26 26 27 27 26 26 26 25 25 25 25 25 25 25 25 25 25 25 27 27
5 5 5 5 6 7 8 8 10 11 12 10 9 8 7 6 5 8 8 11 12 11 9 9 9 12 13 13 12 13 13 13 14 nan nan 16 nan nan 14 15 nan nan 17 15 17 nan nan nan nan nan nan nan nan 11 14 15 nan 26 25 18 20 28 27 28 28 28 29 29 29 29 29 29 28 27 27 27 26 26 26 25 26 25 26 27 29
7 6 7 7 7 8 9 9 9 11 12 13 12 10 9 7 6 7 8 10 11 11 8 8 9 12 13 13 12 12 13 13 13 15 nan 12 16 14 16 14 13 14 nan 16 nan nan nan nan nan nan nan 16 15 nan nan nan nan 27 22 nan 17 23 29 30 29 29 30 31 31 32 32 32 32 31 31 30 29 28 28 28 27 27 28 29 31
8 8 7 8 8 9 9 9 9 10 12 13 13 12 11 8 7 7 8 9 10 10 8 7 7 10 12 15 13 12 11 14 14 14 15 14 13 14 14 15 14 12 15 14 15 14 19 nan nan nan nan 19 16 14 15 15 16 24 21 19 nan 20 30 32 32 31 32 33 34 35 34 34 34 34 33 33 32 32 31 31 30 30 30 31 32
9 9 9 9 9 10 10 10 11 11 12 13 14 14 13 11 9 8 8 8 10 10 8 6 5 6 10 13 14 14 13 13 15 15 17 16 16 16 15 15 15 15 14 14 16 15 17 nan nan 21 18 21 19 17 16 17 22 25 19 20 22 23 34 36 35 35 36 37 38 38 38 38 37 36 36 35 35 35 34 33 32 32 32 33 34
10 10 11 10 10 11 12 12 11 12 13 13 14 15 15 13 12 9 9 9 9 10 9 7 5 6 8 12 14 14 15 15 15 17 17 19 17 16 17 16 17 17 16 17 16 18 nan 18 nan 22 23 21 20 21 21 20 26 22 nan 22 22 32 37 35 38 38 39 40 nan nan nan nan nan 40 40 39 39 38 35 33 32 31 32 34 36
11 11 12 12 12 12 13 12 12 13 14 13 14 15 16 15 14 12 11 11 10 10 10 9 6 6 7 10 13 14 15 16 16 16 17 18 18 18 18 18 19 19 19 18 17 17 21 nan 19 20 23 25 22 20 23 23 28 nan nan 23 30 38 34 34 nan nan nan nan nan nan nan nan nan nan nan 41 41 39 37 35 32 31 32 35 38
14 14 13 13 14 14 13 14 12 14 15 14 14 14 15 16 15 13 12 14 11 11 11 10 9 8 9 9 11 14 15 17 16 16 17 19 19 18 18 20 21 21 21 21 20 19 18 20 18 18 22 23 27 25 24 25 30 29 nan 26 31 32 32 32 40 nan nan nan nan nan nan nan nan nan nan nan nan nan 40 37 35 34 33 34 36
18 17 16 15 15 15 15 15 15 14 16 16 15 14 15 16 16 15 13 13 14 12 13 12 11 10 10 11 12 14 15 16 17 17 17 20 21 20 21 23 23 23 22 22 22 20 19 20 21 20 18 24 22 29 27 27 27 31 31 31 nan 31 32 32 nan 43 nan nan nan nan nan nan nan nan nan nan nan 44 43 40 38 36 nan 34 36
20 19 20 18 18 18 17 17 17 16 17 17 17 15 15 16 17 16 15 15 15 15 15 14 14 13 12 13 13 14 15 16 16 16 17 19 21 22 24 24 23 23 23 23 22 22 20 19 23 23 23 24 26 27 30 27 26 27 31 32 32 32 32 33 33 36 nan nan nan nan nan nan nan nan nan nan nan nan nan nan nan nan nan nan nan
20 20 20 20 20 20 19 19 19 18 18 18 18 17 16 16 17 17 17 17 16 16 16 17 16 16 15 15 14 15 16 16 17 17 17 18 20 22 24 24 23 22 22 25 24 22 21 22 22 23 25 27 30 27 26 30 30 30 30 31 33 33 34 36 37 33 44 nan nan nan nan nan nan nan nan nan nan nan nan nan nan nan nan nan nan
19 20 19 19 20 20 20 20 20 20 19 19 19 18 18 17 17 18 18 18 18 17 17 17 17 18 17 16 16 16 16 17 18 18 18 20 20 21 23 23 24 24 23 24 25 24 23 23 22 24 25 26 27 31 33 32 33 32 32 33 33 34 35 35 34 35 44 nan nan nan nan nan nan nan nan nan nan nan nan nan nan nan nan nan nan
19 18 19 18 18 18 19 20 21 21 21 20 20 20 19 19 19 19 19 19 19 19 19 18 18 18 19 18 18 18 18 18 18 19 20 21 21 21 22 23 23 24 24 24 24 25 25 25 24 25 28 29 32 33 34 35 34 34 34 36 36 35 35 35 35 nan 38 44 43 44 nan nan nan nan nan nan nan nan nan nan nan nan nan nan nan
19 18 18 18 17 17 19 20 21 22 22 21 21 20 20 20 21 21 20 20 20 21 21 20 19 19 20 20 20 19 19 20 20 20 21 21 21 22 22 23 23 24 25 24 25 25 25 25 26 27 27 30 32 34 36 35 35 34 33 36 37 37 37 37 35 34 34 nan nan nan 46 49 51 55 60 nan nan nan nan nan nan nan nan nan nan
16 17 17 18 17 16 17 18 20 22 22 22 21 21 21 21 21 22 21 20 20 21 21 21 19 18 20 21 22 21 21 21 21 22 22 22 21 21 22 22 22 23 24 25 25 25 24 25 26 28 31 31 33 34 34 37 36 36 35 35 35 37 39 37 35 33 35 37 36 nan 47 49 nan 53 nan nan nan nan nan nan nan nan nan nan nan
13 13 14 15 17 16 15 16 18 20 21 21 21 21 21 22 22 22 23 22 21 21 22 22 21 19 20 22 23 23 23 23 25 23 23 23 22 21 21 23 23 23 23 24 25 25 25 25 26 27 27 31 32 34 38 38 39 37 37 36 36 37 37 37 37 36 35 37 38 nan 40 45 47 51 55 54 53 nan 49 47 nan nan nan 42 nan
11 10 10 11 14 15 16 16 16 16 16 17 20 23 22 22 23 22 23 23 22 22 23 23 23 22 20 22 24 25 27 28 27 26 25 25 24 21 22 23 24 24 24 25 26 27 26 26 27 28 29 30 33 36 37 39 40 39 37 38 37 38 37 36 35 36 37 39 40 40 41 43 43 44 48 50 49 52 47 45 41 41 47 nan nan
9 9 8 10 10 12 15 16 17 16 15 14 20 22 23 23 23 23 22 23 23 23 23 23 23 23 22 22 23 28 29 31 29 29 27 26 26 24 24 24 24 26 26 27 27 28 28 28 28 29 29 31 35 36 39 39 41 41 41 40 38 38 38 38 37 39 41 41 40 39 40 42 41 42 45 45 nan nan nan nan nan nan nan nan nan
10 8 8 8 7 9 11 14 16 15 14 17 23 23 24 24 23 22 21 22 23 23 23 24 24 24 24 23 23 25 28 30 30 30 29 29 27 26 26 25 26 27 26 28 30 30 31 30 29 31 31 33 34 37 39 41 43 43 45 43 40 39 39 39 39 nan 40 42 41 40 40 42 43 nan nan nan nan nan nan nan nan nan nan nan nan
11 9 8 8 8 8 9 11 13 14 14 18 24 26 26 26 26 24 22 22 22 23 24 25 25 25 25 25 25 26 27 33 32 31 31 30 29 29 29 29 27 28 28 27 28 30 32 31 29 31 33 34 35 38 38 38 41 44 48 45 42 41 39 39 39 nan 43 45 43 42 40 nan nan nan nan nan nan nan nan nan nan nan nan nan nan
12 10 10 9 7 8 8 9 9 11 13 18 24 26 28 29 29 27 23 23 23 23 24 26 27 27 27 27 27 28 28 33 32 32 32 31 32 31 31 30 28 27 28 30 31 30 30 31 30 32 36 37 36 36 38 40 41 44 47 47 46 43 42 40 39 40 40 44 45 nan nan nan nan nan nan nan nan nan nan 48 nan nan nan nan nan
14 12 11 10 8 9 10 10 8 8 8 18 24 26 27 29 30 29 25 24 24 24 24 26 28 29 29 29 29 30 31 32 33 35 35 34 34 35 34 33 31 30 30 31 33 33 34 34 33 32 33 36 37 38 39 41 44 46 47 47 46 45 42 40 40 41 40 44 nan nan nan nan nan nan nan nan nan nan nan nan nan nan nan nan nan
16 15 13 12 12 12 12 13 12 8 7 18 22 24 27 28 31 27 27 26 25 25 24 25 26 28 30 31 31 31 32 32 36 40 39 38 37 38 38 35 33 32 32 33 35 36 36 37 36 35 37 38 41 42 43 45 46 47 50 49 48 49 47 nan nan nan 44 nan 52 nan nan nan nan nan nan nan nan nan nan nan nan nan nan nan nan
19 17 16 15 15 15 16 17 17 13 10 20 23 24 25 29 30 27 28 28 28 27 27 27 26 27 29 31 32 33 33 32 37 41 43 44 40 40 40 39 37 36 35 37 39 39 38 41 39 40 46 51 53 56 55 51 49 49 51 51 51 nan nan nan nan nan nan nan nan nan nan nan nan nan nan nan nan nan nan nan nan nan nan nan nan
22 20 19 18 17 18 19 19 21 19 15 24 28 27 28 32 33 31 32 32 31 30 30 31 30 27 26 30 32 31 33 33 42 42 44 46 43 43 43 42 41 39 39 40 43 44 48 51 51 50 52 55 55 58 59 58 55 51 52 51 nan nan nan 50 nan nan nan nan nan nan nan nan nan nan nan nan nan nan nan nan nan nan nan nan nan
23 22 22 21 21 21 20 21 23 23 21 24 33 31 32 34 33 33 35 35 34 33 33 33 33 33 30 29 31 31 31 35 46 44 45 45 43 44 44 44 43 41 43 46 50 50 50 50 51 51 51 54 56 55 55 58 57 53 50 nan nan nan nan nan nan nan nan nan nan nan nan nan nan nan nan nan nan nan nan nan nan nan nan nan nan
Wind_Direction
102 98 98 105 105 93 89 81 68 108 81 95 51 52 52 61 68 71 73 76 68 65 71 63 68 58 62 67 48 nan nan 57 50 51 29 10 14 13 14 18 18 14 13 14 8 5 5 6 6 359 356 354 353 351 354 348 340 340 334 326 315 315 313 309 303 304 308 313 316 319 319 318 321 320 315 314 310 307 307 309 309 309 313 314 322
106 107 105 102 98 96 96 82 73 59 58 68 43 40 37 54 56 64 80 75 88 49 65 59 70 55 57 52 nan nan nan nan nan 51 38 9 9 10 8 13 19 15 15 15 10 4 4 7 9 8 3 3 357 355 353 347 346 344 341 339 338 332 332 321 317 311 312 314 322 322 322 319 322 320 320 314 308 303 297 297 295 296 299 308 316
109 104 101 101 98 98 87 82 69 85 25 48 41 25 39 20 48 75 50 54 55 49 53 53 70 59 54 62 nan nan nan nan nan nan 27 4 2 7 8 7 11 17 15 13 9 7 3 8 8 7 7 9 4 1 357 354 347 345 339 344 348 348 342 337 341 341 331 329 334 333 330 330 341 333 319 318 309 297 284 278 279 277 280 287 293
135 111 110 105 97 82 75 74 69 39 62 16 48 50 23 26 48 32 37 66 58 68 49 55 60 44 34 46 42 nan nan nan nan nan nan nan 358 4 3 9 8 8 11 12 11 10 7 5 5 4 7 10 6 3 1 3 358 349 348 346 348 350 351 358 4 2 357 353 358 353 350 347 342 341 337 330 319 310 298 288 274 265 259 261 272
125 114 109 106 100 98 83 61 53 69 14 45 14 45 328 357 16 349 51 56 56 303 67 35 73 46 57 10 48 nan nan nan nan nan nan nan 359 353 1 0 5 4 7 7 6 9 12 8 9 4 1 2 2 2 1 2 356 347 350 351 354 352 357 7 20 20 12 9 10 4 0 350 344 344 346 345 343 327 315 287 265 266 269 266 271
117 103 104 97 90 78 78 47 56 34 28 21 12 35 350 343 317 28 320 68 268 58 10 24 42 34 35 15 45 nan nan nan nan nan nan nan 339 348 352 353 356 359 360 5 5 3 6 10 11 8 1 359 357 2 3 3 355 358 355 355 358 3 14 18 26 26 19 14 12 5 359 342 347 347 342 342 333 327 327 305 276 256 250 250 255
102 102 92 99 84 70 55 58 40 27 25 10 26 17 351 324 319 354 297 356 5 342 47 17 28 356 16 7 37 nan nan nan nan nan nan nan 344 324 343 344 345 352 354 359 6 4 2 0 5 5 5 2 0 4 359 357 357 0 357 354 2 15 23 24 20 20 12 7 5 8 358 341 340 346 351 350 351 352 353 340 302 280 272 255 244
94 93 97 84 81 67 54 49 9 36 33 353 11 22 334 314 320 345 333 323 333 44 27 22 13 345 351 350 350 359 nan nan nan nan nan nan 330 335 339 344 343 354 351 356 356 359 5 357 358 359 1 6 5 9 357 351 356 351 350 360 14 28 32 26 15 19 28 15 16 16 360 353 353 355 360 4 7 8 8 6 4 342 302 279 253
85 85 88 77 66 54 351 39 31 40 16 18 16 20 12 334 303 300 343 349 10 350 28 24 12 6 345 5 315 nan nan nan nan nan nan 334 336 332 337 334 329 334 343 350 346 348 4 1 358 355 354 355 358 4 1 0 3 359 355 6 16 32 35 18 355 27 18 11 4 11 20 17 12 7 8 17 21 22 18 16 15 19 14 351 292
75 76 76 72 59 54 328 25 50 36 27 28 35 27 16 36 14 10 19 12 24 7 359 13 4 12 356 327 330 7 nan nan nan nan nan 334 319 328 336 333 341 330 332 333 341 347 350 2 1 353 353 352 353 356 1 4 3 357 353 4 17 30 37 25 12 19 24 24 21 18 22 23 18 19 23 24 23 22 23 17 16 17 12 0 355
64 59 60 58 56 46 30 18 35 34 35 39 35 33 51 70 73 45 20 42 52 42 28 10 8 17 350 348 328 347 nan nan nan nan nan 330 325 354 321 330 324 333 331 335 339 334 341 349 356 350 347 353 347 352 356 359 358 354 354 356 357 4 32 25 16 15 22 32 28 22 22 22 18 15 10 14 19 24 24 18 15 14 6 358 356
53 47 47 55 55 45 39 39 40 45 39 50 48 53 41 48 55 51 52 52 42 55 31 33 25 350 353 347 336 347 59 293 nan nan 336 335 350 346 nan nan 307 311 325 325 333 332 339 341 349 342 344 347 343 340 342 343 342 340 344 346 351 0 7 10 3 11 13 14 16 13 10 10 7 3 4 6 9 11 14 14 12 10 0 357 355
42 38 42 40 48 48 35 42 47 46 45 59 50 67 59 63 69 52 59 57 54 45 41 43 24 355 352 34 326 16 358 nan nan nan nan nan nan 350 338 nan nan nan nan nan 326 327 334 336 341 346 346 339 341 338 331 331 330 330 331 336 344 358 6 3 354 348 353 360 2 2 3 3 0 359 0 356 356 353 355 357 353 351 354 356 353
38 36 36 34 35 38 38 36 43 57 40 49 59 50 53 49 54 51 41 54 55 55 29 25 17 17 355 nan nan nan 334 nan nan nan nan nan nan 345 nan nan nan nan nan nan nan nan nan 335 337 339 346 347 340 333 336 332 331 328 324 330 337 347 351 1 345 339 339 344 345 346 351 350 348 350 349 348 346 346 340 336 338 343 343 343 343
32 32 33 33 34 32 26 29 37 44 34 41 42 45 39 41 40 43 41 27 44 45 33 54 40 nan 323 27 nan nan nan nan nan nan nan nan nan nan nan nan nan nan nan nan nan nan nan 327 332 337 344 346 347 345 346 340 327 320 313 312 324 336 345 352 346 343 340 337 335 331 330 331 333 330 327 327 328 324 321 324 329 329 330 326 321
33 28 31 36 39 33 27 34 25 36 37 38 30 28 25 24 35 43 39 43 27 12 17 32 47 nan nan nan nan nan nan nan nan nan nan nan nan nan nan nan nan nan nan nan nan nan 332 336 335 337 338 340 342 336 341 340 333 330 331 328 327 333 339 341 341 341 340 338 333 329 327 321 321 324 321 316 320 320 322 321 320 316 311 311 308
40 32 36 38 39 35 36 25 25 21 26 30 27 32 25 21 22 40 31 39 42 342 14 17 38 57 30 nan nan nan 35 nan nan nan nan nan nan nan nan nan nan nan nan nan nan nan nan 331 336 334 338 339 333 336 338 345 344 nan 338 334 336 340 342 341 339 338 334 332 333 334 330 327 323 318 312 312 309 308 308 307 306 306 304 301 299
50 26 35 33 29 33 29 31 22 17 26 35 25 19 23 30 16 28 19 12 45 11 0 13 11 13 52 52 85 47 25 nan nan nan nan nan nan nan nan nan nan nan 326 nan nan nan nan 336 341 336 337 332 338 332 nan nan 343 nan nan 340 340 340 342 344 344 nan nan 340 339 340 338 334 330 324 nan 316 nan nan 310 307 305 nan 303 300 298
25 15 24 25 24 17 25 28 29 21 16 19 15 21 23 15 13 11 12 347 8 21 30 353 354 357 18 42 23 22 6 nan nan nan nan nan nan nan nan nan nan nan 344 nan nan nan nan nan nan 327 331 335 nan nan 335 322 306 309 nan nan nan 340 342 351 nan nan nan nan 345 343 341 nan nan nan nan 325 nan nan nan nan nan nan nan 302 297
37 352 10 16 18 11 12 21 24 27 25 15 15 15 21 357 357 359 346 352 358 9 14 358 344 4 nan nan nan 37 26 53 25 nan nan nan nan nan nan nan nan 344 nan nan nan nan nan nan nan nan 331 328 337 331 nan nan nan nan nan 337 nan nan 339 341 347 350 nan nan nan 342 340 337 335 333 nan 328 nan nan nan nan nan nan nan nan 300
37 360 355 7 10 15 10 11 15 16 14 19 11 10 11 359 352 347 350 341 350 359 8 33 360 3 9 22 32 nan nan 32 14 13 38 nan nan nan nan nan nan nan nan nan nan 316 334 nan 338 348 333 331 329 329 329 331 337 335 nan 338 nan nan nan nan nan nan 347 344 nan nan nan nan nan 328 nan 323 nan 318 316 315 312 312 308 305 302
355 5 338 359 7 6 10 14 16 10 5 14 13 1 359 2 355 351 344 339 347 355 2 16 22 25 356 16 33 26 24 nan nan 15 17 29 4 nan nan nan 346 nan 333 nan nan nan nan nan nan nan nan nan 337 nan 332 339 335 344 nan 336 341 342 nan nan nan nan nan nan nan nan nan nan nan nan nan nan nan nan nan nan nan 309 307 305 302
313 314 344 356 2 1 7 10 14 2 355 2 2 356 351 349 348 344 339 339 344 350 1 13 15 37 355 11 24 27 28 22 29 nan nan nan 7 16 nan nan nan nan 335 333 nan nan nan 328 nan nan 336 nan nan 340 341 342 nan 323 329 339 342 346 346 347 349 nan nan nan nan nan nan nan nan nan nan nan nan nan nan nan nan nan nan nan nan
283 297 328 0 347 350 3 4 359 0 346 338 347 343 345 337 330 331 335 340 345 349 2 11 16 14 19 2 13 24 11 25 nan 47 21 5 5 6 357 316 312 333 330 328 342 346 nan nan nan nan nan nan nan 342 339 337 332 327 339 341 346 349 350 350 351 348 348 345 343 nan nan nan nan nan nan nan 319 316 nan nan nan nan nan nan nan
274 297 320 349 332 335 347 354 347 346 332 320 329 339 330 323 319 332 334 340 346 352 2 16 14 4 17 6 2 14 3 9 19 15 nan 2 1 354 345 340 341 nan 331 333 340 nan nan nan nan nan nan nan nan 335 340 340 341 338 348 343 350 349 350 349 347 346 345 343 339 337 333 332 331 328 324 nan nan nan nan nan 313 311 nan 310 308
284 294 306 326 331 328 335 349 348 343 334 324 320 319 319 318 319 329 336 334 336 346 1 19 14 11 nan 16 4 3 5 354 nan nan 355 353 356 356 346 339 nan nan 320 326 335 nan nan nan nan 343 nan nan nan 337 344 nan 342 337 350 348 345 347 347 346 344 344 343 340 336 335 334 334 334 332 329 328 328 327 324 320 316 312 309 307 305
288 292 301 301 317 313 325 342 347 345 337 327 314 308 311 312 315 329 334 332 338 340 350 14 14 12 11 15 15 5 9 352 358 nan nan 348 nan nan 348 345 nan nan 328 330 331 nan nan nan nan nan nan nan nan 343 343 345 nan 334 343 348 337 344 346 344 343 343 340 336 334 335 335 336 335 335 334 334 333 332 328 323 317 311 305 300 298
289 294 307 308 305 312 318 332 340 344 342 336 324 309 306 310 312 322 335 327 335 338 342 0 16 12 13 13 18 22 1 8 4 352 nan 358 339 344 338 342 343 340 nan 331 nan nan nan nan nan nan nan 334 338 nan nan nan nan 333 338 nan 335 333 343 342 341 339 336 334 334 335 337 338 340 341 342 341 340 336 332 327 322 316 310 303 298
290 297 305 307 303 308 310 321 327 331 338 338 331 318 305 305 310 322 329 333 331 328 337 340 5 7 6 11 13 22 14 5 8 2 354 356 345 338 336 338 338 341 336 338 335 337 336 nan nan nan nan 330 333 339 334 337 330 325 334 337 nan 332 335 339 335 333 334 333 335 338 340 342 343 345 345 344 342 338 334 330 326 320 313 306 301
290 291 298 308 303 304 301 306 313 323 330 334 333 326 315 303 306 315 321 322 327 321 320 326 345 4 2 4 5 11 12 3 0 4 348 352 349 345 341 338 337 342 340 341 335 342 331 nan nan 326 334 329 332 334 331 334 320 333 335 334 334 332 327 333 331 332 335 337 339 341 343 344 345 344 343 342 340 336 334 331 327 321 315 308 301
284 284 291 301 300 299 297 302 301 310 317 325 327 328 324 310 303 308 316 318 319 317 310 309 324 347 359 3 358 2 1 360 354 356 349 347 353 349 344 342 340 343 343 339 341 340 nan 336 nan 323 333 333 338 334 329 329 322 331 nan 331 330 314 322 327 331 333 336 339 nan nan nan nan nan 343 341 341 339 337 335 333 329 322 313 306 299
288 291 289 294 297 300 296 298 302 304 308 315 321 324 325 319 309 304 307 316 323 317 311 304 302 323 347 357 352 353 353 351 353 350 347 346 350 351 349 345 342 343 342 342 344 340 337 nan 338 335 333 333 336 331 329 331 321 nan nan 330 319 321 326 329 nan nan nan nan nan nan nan nan nan nan nan 343 341 341 340 337 332 322 312 304 300
292 294 293 292 292 293 295 292 297 292 295 301 304 311 319 320 315 308 302 310 317 312 306 306 306 309 325 339 342 343 347 348 347 347 344 345 349 351 349 346 344 342 342 343 344 345 340 341 344 339 337 336 330 332 331 332 324 327 nan 333 328 331 332 334 331 nan nan nan nan nan nan nan nan nan nan nan nan nan 344 341 334 324 314 307 301
296 297 296 292 288 291 292 290 288 290 291 293 300 301 310 315 319 307 303 301 308 313 306 306 305 299 308 322 330 333 338 344 346 345 343 342 345 348 345 345 344 342 341 344 346 346 347 341 341 341 341 333 336 330 333 333 334 329 332 330 nan 332 332 333 nan 332 nan nan nan nan nan nan nan nan nan nan nan 347 346 343 336 328 nan 312 306
298 296 294 293 287 288 288 286 287 288 288 292 292 295 299 307 312 312 305 303 304 310 310 305 305 301 304 311 323 325 326 338 343 344 340 340 341 343 344 341 343 343 341 344 345 347 349 346 340 342 343 337 337 334 332 332 332 331 330 331 330 330 330 334 335 332 nan nan nan nan nan nan nan nan nan nan nan nan nan nan nan nan nan nan nan
304 298 294 292 288 286 287 287 288 287 288 288 290 291 293 296 301 307 307 303 300 303 305 305 305 302 303 305 314 322 325 332 338 340 338 337 339 339 343 341 341 343 340 340 346 346 345 347 344 346 340 342 336 337 335 332 334 333 331 329 331 332 332 335 335 335 333 nan nan nan nan nan nan nan nan nan nan nan nan nan nan nan nan nan nan
316 305 299 294 290 288 286 288 287 288 288 288 289 291 288 287 293 300 305 304 301 299 298 300 300 301 302 304 309 315 320 327 332 337 337 340 338 338 340 339 338 338 338 339 342 346 347 348 344 341 339 337 336 336 336 335 333 332 332 332 332 332 333 336 335 334 328 nan nan nan nan nan nan nan nan nan nan nan nan nan nan nan nan nan nan
325 320 311 303 296 294 289 288 288 289 288 288 290 291 291 289 289 294 301 306 304 298 295 298 300 300 300 303 305 311 317 324 327 330 333 338 337 339 340 337 335 333 336 338 340 343 346 347 344 342 338 340 339 339 337 334 333 332 333 333 334 333 332 335 337 nan 330 332 338 345 nan nan nan nan nan nan nan nan nan nan nan nan nan nan nan
331 331 327 319 309 303 295 291 291 290 291 291 289 291 289 288 289 293 298 304 304 298 295 297 299 301 302 301 304 309 315 319 323 326 329 332 333 338 337 336 333 333 332 334 336 340 343 344 343 341 340 341 343 342 339 337 334 332 332 332 334 331 333 334 336 335 335 nan nan nan 348 350 349 353 353 nan nan nan nan nan nan nan nan nan nan
337 339 341 334 328 321 310 300 294 290 292 292 293 293 292 291 291 292 294 299 305 304 299 298 300 302 303 304 305 308 313 315 318 321 324 326 326 331 332 331 331 331 330 330 332 335 338 341 339 340 340 342 343 344 341 339 338 336 335 335 335 333 333 333 334 335 334 335 340 nan 344 346 nan 352 nan nan nan nan nan nan nan nan nan nan nan
332 341 346 346 340 338 333 320 308 300 297 294 290 293 293 296 293 294 296 299 302 303 302 299 298 302 303 303 304 307 308 311 318 317 321 320 320 324 326 328 329 329 327 325 327 330 333 335 336 335 337 338 342 343 343 343 343 340 335 335 335 333 332 333 335 336 336 335 338 nan 343 345 349 347 348 348 348 nan 353 358 nan nan nan 336 nan
329 330 336 345 351 346 345 341 334 324 314 299 295 301 293 286 291 288 291 296 300 299 300 299 299 303 306 303 302 308 306 309 310 315 317 318 322 321 320 323 325 324 324 324 324 326 328 331 333 334 337 341 342 342 344 345 344 342 339 335 336 334 334 334 331 333 336 339 338 338 341 343 347 348 347 349 350 350 351 350 343 331 330 nan nan
326 317 333 353 2 353 350 346 346 342 335 321 314 305 300 296 286 288 290 292 296 297 299 298 297 300 301 302 297 300 300 303 306 312 313 314 317 320 319 322 321 321 322 323 322 322 324 328 329 330 334 335 336 338 339 343 342 343 338 335 335 333 335 336 336 333 334 335 335 336 339 343 344 347 349 352 nan nan nan nan nan nan nan nan nan
309 319 340 354 356 358 349 352 351 346 343 335 323 320 313 308 299 293 290 290 291 294 296 297 295 294 296 297 297 292 298 300 300 301 308 313 312 316 319 314 320 323 321 318 318 320 322 324 326 328 331 332 332 333 337 338 335 335 334 335 334 335 336 336 335 nan 326 331 333 335 337 340 345 nan nan nan nan nan nan nan nan nan nan nan nan
301 311 324 341 350 355 356 352 355 352 351 335 327 325 322 319 314 308 298 298 296 295 296 297 296 294 292 292 293 294 292 303 299 300 300 304 308 314 316 312 313 318 319 317 314 317 318 319 325 326 329 328 330 330 331 332 329 332 330 334 336 335 334 336 335 nan 328 330 330 332 336 nan nan nan nan nan nan nan nan nan nan nan nan nan nan
300 308 324 333 333 338 341 343 340 351 357 331 332 329 328 325 322 314 306 307 304 301 302 301 297 298 296 293 294 294 293 293 298 302 302 303 301 301 303 304 307 309 312 316 315 312 310 311 317 324 324 325 325 324 326 326 329 329 330 334 335 336 335 336 334 331 332 333 335 nan nan nan nan nan nan nan nan nan nan 334 nan nan nan nan nan
299 299 307 318 319 321 330 330 325 339 348 323 328 331 331 329 326 318 311 308 306 307 307 306 303 303 301 298 298 297 298 300 301 305 303 304 302 302 304 309 313 313 312 315 317 316 317 318 314 316 317 319 321 323 321 323 328 328 328 330 333 333 330 329 333 336 337 337 nan nan nan nan nan nan nan nan nan nan nan nan nan nan nan nan nan
285 284 287 298 308 311 312 313 314 322 316 306 316 323 328 326 322 305 309 313 313 311 310 308 305 301 302 301 300 302 301 304 306 310 306 300 301 300 303 306 309 310 311 311 314 317 317 315 315 319 320 319 319 320 319 321 323 325 324 322 323 327 330 nan nan nan 340 nan 329 nan nan nan nan nan nan nan nan nan nan nan nan nan nan nan nan
287 286 286 289 289 298 305 303 306 299 293 290 304 314 317 317 304 299 305 308 310 314 312 312 309 306 306 306 305 303 303 302 302 309 306 302 299 299 299 302 304 305 306 303 308 310 310 295 295 301 296 300 302 302 302 305 315 321 322 322 323 nan nan nan nan nan nan nan nan nan nan nan nan nan nan nan nan nan nan nan nan nan nan nan nan
291 285 277 276 281 285 293 301 300 298 292 287 304 308 312 309 304 297 299 302 306 309 310 310 307 308 311 313 310 308 304 304 301 309 306 302 299 299 298 298 300 302 302 301 297 293 293 292 295 299 301 300 301 302 305 307 309 318 323 322 nan nan nan 332 nan nan nan nan nan nan nan nan nan nan nan nan nan nan nan nan nan nan nan nan nan
285 277 273 273 276 278 288 296 298 301 301 298 304 309 312 310 307 297 298 298 299 302 302 302 303 300 302 302 315 312 307 304 302 309 307 302 299 300 299 296 297 300 298 298 294 295 294 296 295 296 297 300 301 303 303 306 310 318 323 nan nan nan nan nan nan nan nan nan nan nan nan nan nan nan nan nan nan nan nan nan nan nan nan nan nan